This demonstration page uses our WeatherBlox Daily Observations layout. Learn more.

Left ArrowRight Arrow

Hourly Observations for April 21, 2016

Temp ( °F °C ) Dew Point ( °F °C ) Humidity (%) Winds ( mph kmh ) Pressure ( in mb ) Visibility ( mi km ) Precip ( " mm )
12:51 am 00:51 Clear 57 13.9 16 -8.9 20 20 SE 6 9 29.85 1011 10 16 0.00 0.00
1:51 am 01:51 Clear 55 12.8 17 -8.3 22 22 SE 3 6 29.84 1011 10 16 0.00 0.00
2:51 am 02:51 Clear 52 11.1 17 -8.3 25 25 S 5 7 29.84 1011 10 16 0.00 0.00
3:51 am 03:51 Clear 51 10.6 17 -8.3 26 26 Calm 29.85 1011 10 16 0.00 0.00
4:51 am 04:51 Clear 48 8.9 17 -8.3 29 29 Calm 29.86 1011 10 16 0.00 0.00
5:51 am 05:51 Sunny 46 7.8 18 -7.8 32 32 Calm 29.88 1012 10 16 0.00 0.00
6:51 am 06:51 Sunny 53 11.7 18 -7.8 25 25 Calm 29.90 1012 10 16 0.00 0.00
7:51 am 07:51 Sunny 62 16.7 22 -5.6 21 21 SSE 5 7 29.91 1013 10 16 0.00 0.00
8:51 am 08:51 Sunny 71 21.7 22 -5.6 16 16 SSE 10 17 29.90 1013 10 16 0.00 0.00
9:51 am 09:51 Sunny 75 23.9 20 -6.7 12 12 SSE 10 17 29.90 1013 10 16 0.00 0.00
10:51 am 10:51 Sunny 80 26.7 18 -7.8 10 10 VRB 7 11 29.88 1012 10 16 0.00 0.00
11:51 am 11:51 Sunny 85 29.4 19 -7.2 9 9 VRB 6 9 29.86 1011 10 16 0.00 0.00
12:51 pm 12:51 Sunny 88 31.1 14 -10 6 6 VRB 7 11 29.83 1010 10 16 0.00 0.00
1:51 pm 13:51 Sunny 88 31.1 10 -12.2 5 5 S 8 13 29.80 1009 10 16 0.00 0.00
2:51 pm 14:51 Sunny 90 32.2 8 -13.3 4 4 SSE 9 15 29.78 1009 10 16 0.00 0.00
3:51 pm 15:51 Sunny 90 32.2 9 -12.8 5 5 SSE 6 9 29.75 1007 10 16 0.00 0.00
4:51 pm 16:51 Sunny 90 32.2 8 -13.3 4 4 SSE 9 15 29.74 1007 10 16 0.00 0.00
5:51 pm 17:51 Sunny 90 32.2 10 -12.2 5 5 VRB 6 9 29.74 1007 10 16 0.00 0.00
6:51 pm 18:51 Sunny 84 28.9 11 -11.7 6 6 Calm 29.74 1007 10 16 0.00 0.00
7:51 pm 19:51 Clear 76 24.4 13 -10.6 9 9 NE 9 15 29.75 1008 10 16 0.00 0.00
8:51 pm 20:51 Clear 72 22.2 17 -8.3 12 12 S 6 9 29.76 1008 10 16 0.00 0.00
9:51 pm 21:51 Clear 67 19.4 18 -7.8 15 15 S 3 6 29.78 1009 10 16 0.00 0.00
10:51 pm 22:51 Clear 67 19.4 15 -9.4 13 13 NNE 9 15 29.78 1009 10 16 0.00 0.00
11:51 pm 23:51 Clear 71 21.7 15 -9.4 12 12 N 8 13 29.76 1008 10 16 0.00 0.00

Powered by AerisWeather